When you browse on this site, cookies collect data to enhance your experience and personalize the content and advertising you see.
Visit our Privacy Policy to learn more. By continuing to use the site, you agree to this use of cookies and data.
  • en Suisse
  • Liste des pays
  • À 7 jours
  • Température de l'eau
  • Carte satellitaire
  • Carte météo
  • Widgets météo
  • user-avatar
    Se connecter

    Météo par heure à Kalety

    Ce jour, 26 Avril, Vendredi

    Heure Température Précipitation Vent Pression Humidité
    00:00 +16°C° 0 mm 2 m/s 745 mmHg 82%
    01:00 +16°C° 0 mm 2 m/s 745 mmHg 82%
    02:00 +14°C° 0 mm 3 m/s 745 mmHg 82%
    03:00 +14°C° 0 mm 3 m/s 745 mmHg 82%
    04:00 +14°C° 0 mm 3 m/s 745 mmHg 82%
    05:00 +16°C° 0 mm 3 m/s 744 mmHg 78%
    06:00 +17°C° 0 mm 3 m/s 744 mmHg 74%
    07:00 +18°C° 0 mm 4 m/s 744 mmHg 70%
    08:00 +20°C° 0 mm 4 m/s 744 mmHg 63%
    09:00 +22°C° 0 mm 4 m/s 744 mmHg 57%
    10:00 +23°C° 0 mm 4 m/s 743 mmHg 51%
    11:00 +25°C° 0 mm 4 m/s 743 mmHg 48%
    12:00 +26°C° 0 mm 4 m/s 743 mmHg 45%
    13:00 +27°C° 0 mm 4 m/s 743 mmHg 42%
    14:00 +27°C° 0 mm 3 m/s 743 mmHg 42%
    15:00 +27°C° 0 mm 3 m/s 742 mmHg 43%
    16:00 +27°C° 0 mm 3 m/s 742 mmHg 44%
    17:00 +25°C° 0 mm 2 m/s 742 mmHg 50%
    18:00 +24°C° 0 mm 2 m/s 742 mmHg 55%
    19:00 +21°C° 0 mm 2 m/s 741 mmHg 61%
    20:00 +20°C° 0 mm 2 m/s 742 mmHg 63%
    21:00 +19°C° 0 mm 2 m/s 742 mmHg 66%
    22:00 +18°C° 0 mm 3 m/s 742 mmHg 68%
    23:00 +18°C° 0 mm 3 m/s 742 mmHg 75%

    Demain, 27 Avril, Samedi

    Heure Température Précipitation Vent Pression Humidité
    00:00 +17°C° 0 mm 3 m/s 742 mmHg 81%
    01:00 +15°C° 0 mm 4 m/s 742 mmHg 88%
    02:00 +15°C° 0.1 mm 4 m/s 742 mmHg 90%
    03:00 +15°C° 0.1 mm 4 m/s 742 mmHg 91%
    04:00 +15°C° 0.1 mm 5 m/s 742 mmHg 93%
    05:00 +14°C° 0.1 mm 5 m/s 743 mmHg 92%
    06:00 +14°C° 0.1 mm 5 m/s 743 mmHg 91%
    07:00 +14°C° 0.1 mm 6 m/s 744 mmHg 90%
    08:00 +13°C° 0.1 mm 6 m/s 744 mmHg 88%
    09:00 +11°C° 0.1 mm 6 m/s 744 mmHg 86%
    10:00 +11°C° 0.1 mm 6 m/s 745 mmHg 84%
    11:00 +11°C° 0 mm 6 m/s 745 mmHg 79%
    12:00 +13°C° 0 mm 6 m/s 745 mmHg 74%
    13:00 +14°C° 0 mm 6 m/s 746 mmHg 69%
    14:00 +14°C° 0 mm 5 m/s 746 mmHg 67%
    15:00 +14°C° 0 mm 5 m/s 746 mmHg 65%
    16:00 +14°C° 0 mm 4 m/s 746 mmHg 63%
    17:00 +14°C° 0 mm 4 m/s 746 mmHg 66%
    18:00 +13°C° 0 mm 3 m/s 746 mmHg 69%
    19:00 +13°C° 0 mm 2 m/s 746 mmHg 72%
    20:00 +12°C° 0 mm 2 m/s 746 mmHg 73%
    21:00 +12°C° 0 mm 2 m/s 746 mmHg 74%
    22:00 +10°C° 0 mm 2 m/s 746 mmHg 75%
    23:00 +10°C° 0 mm 2 m/s 747 mmHg 75%

    Après-demain, 28 Avril, Dimanche

    Heure Température Précipitation Vent Pression Humidité
    00:00 +10°C° 0 mm 1 m/s 747 mmHg 75%
    01:00 +10°C° 0 mm 1 m/s 747 mmHg 75%
    02:00 +9°C° 0 mm 2 m/s 747 mmHg 79%
    03:00 +9°C° 0 mm 3 m/s 747 mmHg 83%
    04:00 +8°C° 0 mm 4 m/s 747 mmHg 86%
    05:00 +8°C° 0 mm 4 m/s 748 mmHg 85%
    06:00 +9°C° 0 mm 5 m/s 748 mmHg 85%
    07:00 +9°C° 0 mm 6 m/s 748 mmHg 84%
    08:00 +10°C° 0 mm 6 m/s 748 mmHg 78%
    09:00 +11°C° 0 mm 6 m/s 749 mmHg 72%
    10:00 +13°C° 0 mm 6 m/s 749 mmHg 67%
    11:00 +13°C° 0 mm 6 m/s 749 mmHg 65%
    12:00 +14°C° 0 mm 6 m/s 749 mmHg 62%
    13:00 +14°C° 0 mm 5 m/s 749 mmHg 60%
    14:00 +14°C° 0 mm 5 m/s 749 mmHg 61%
    15:00 +14°C° 0 mm 5 m/s 749 mmHg 61%
    16:00 +14°C° 0 mm 5 m/s 749 mmHg 62%
    17:00 +13°C° 0 mm 4 m/s 749 mmHg 65%
    18:00 +12°C° 0 mm 4 m/s 749 mmHg 67%
    19:00 +11°C° 0 mm 3 m/s 749 mmHg 70%
    20:00 +11°C° 0 mm 3 m/s 749 mmHg 69%
    21:00 +11°C° 0 mm 4 m/s 749 mmHg 69%
    22:00 +11°C° 0 mm 4 m/s 750 mmHg 69%
    23:00 +10°C° 0.1 mm 4 m/s 749 mmHg 72%

    29 Avril, Lundi

    Heure Température Précipitation Vent Pression Humidité
    00:00 +10°C° 0.1 mm 4 m/s 749 mmHg 76%
    01:00 +8°C° 0.1 mm 4 m/s 749 mmHg 80%
    02:00 +8°C° 0.1 mm 4 m/s 749 mmHg 80%
    03:00 +8°C° 0.1 mm 4 m/s 749 mmHg 80%
    04:00 +8°C° 0.1 mm 4 m/s 749 mmHg 81%
    05:00 +8°C° 0 mm 4 m/s 749 mmHg 80%
    06:00 +8°C° 0 mm 5 m/s 749 mmHg 79%
    07:00 +8°C° 0 mm 5 m/s 748 mmHg 78%
    08:00 +8°C° 0.2 mm 6 m/s 748 mmHg 81%
    09:00 +8°C° 0.2 mm 6 m/s 748 mmHg 84%
    10:00 +9°C° 0.2 mm 6 m/s 748 mmHg 87%
    11:00 +8°C° 2.4 mm 6 m/s 748 mmHg 89%
    12:00 +8°C° 2.4 mm 6 m/s 748 mmHg 91%
    13:00 +8°C° 2.4 mm 6 m/s 747 mmHg 93%
    14:00 +8°C° 1.4 mm 6 m/s 747 mmHg 94%
    15:00 +8°C° 1.4 mm 5 m/s 747 mmHg 95%
    16:00 +8°C° 1.4 mm 4 m/s 747 mmHg 95%
    17:00 +10°C° 0.3 mm 4 m/s 747 mmHg 96%
    18:00 +10°C° 0.3 mm 3 m/s 747 mmHg 96%
    19:00 +12°C° 0.3 mm 2 m/s 746 mmHg 97%
    20:00 +12°C° 0.1 mm 2 m/s 747 mmHg 96%
    21:00 +10°C° 0.1 mm 2 m/s 747 mmHg 96%
    22:00 +10°C° 0.1 mm 2 m/s 747 mmHg 96%
    23:00 +10°C° 0 mm 2 m/s 747 mmHg 96%

    30 Avril, Mardi

    Heure Température Précipitation Vent Pression Humidité
    00:00 +9°C° 0 mm 3 m/s 747 mmHg 95%
    01:00 +9°C° 0 mm 3 m/s 747 mmHg 95%
    02:00 +8°C° 0 mm 3 m/s 747 mmHg 95%
    03:00 +8°C° 0 mm 3 m/s 747 mmHg 96%
    04:00 +8°C° 0 mm 3 m/s 747 mmHg 96%
    05:00 +9°C° 0 mm 3 m/s 747 mmHg 93%
    06:00 +10°C° 0 mm 3 m/s 747 mmHg 89%
    07:00 +11°C° 0 mm 4 m/s 747 mmHg 86%
    08:00 +12°C° 0.1 mm 4 m/s 747 mmHg 78%
    09:00 +13°C° 0.1 mm 4 m/s 747 mmHg 70%
    10:00 +15°C° 0.1 mm 4 m/s 747 mmHg 63%
    11:00 +15°C° 0 mm 4 m/s 747 mmHg 60%
    12:00 +15°C° 0 mm 4 m/s 747 mmHg 57%
    13:00 +17°C° 0 mm 4 m/s 747 mmHg 54%
    14:00 +15°C° 0 mm 4 m/s 747 mmHg 55%
    15:00 +15°C° 0 mm 4 m/s 747 mmHg 55%
    16:00 +15°C° 0 mm 4 m/s 746 mmHg 56%
    17:00 +14°C° 0 mm 3 m/s 746 mmHg 60%
    18:00 +13°C° 0 mm 3 m/s 747 mmHg 63%
    19:00 +12°C° 0 mm 2 m/s 747 mmHg 67%
    20:00 +11°C° 0 mm 3 m/s 747 mmHg 66%
    21:00 +11°C° 0 mm 3 m/s 747 mmHg 64%
    22:00 +11°C° 0 mm 3 m/s 747 mmHg 63%
    23:00 +10°C° 0 mm 3 m/s 747 mmHg 66%

    1 Mai, Mercredi

    Heure Température Précipitation Vent Pression Humidité
    00:00 +10°C° 0 mm 3 m/s 747 mmHg 68%
    01:00 +9°C° 0 mm 3 m/s 747 mmHg 71%
    02:00 +9°C° 0 mm 3 m/s 747 mmHg 71%
    03:00 +8°C° 0 mm 3 m/s 747 mmHg 71%
    04:00 +8°C° 0 mm 2 m/s 747 mmHg 71%
    05:00 +9°C° 0 mm 2 m/s 747 mmHg 70%
    06:00 +9°C° 0 mm 2 m/s 747 mmHg 69%
    07:00 +10°C° 0 mm 2 m/s 747 mmHg 68%
    08:00 +12°C° 0.1 mm 2 m/s 747 mmHg 62%
    09:00 +13°C° 0.1 mm 2 m/s 747 mmHg 55%
    10:00 +15°C° 0.1 mm 2 m/s 747 mmHg 49%
    11:00 +15°C° 0 mm 2 m/s 746 mmHg 48%
    12:00 +15°C° 0 mm 2 m/s 746 mmHg 48%
    13:00 +15°C° 0 mm 2 m/s 746 mmHg 47%
    14:00 +15°C° 0 mm 2 m/s 745 mmHg 48%
    15:00 +15°C° 0 mm 1 m/s 745 mmHg 48%
    16:00 +15°C° 0 mm 1 m/s 745 mmHg 49%
    17:00 +14°C° 0 mm 1 m/s 745 mmHg 54%
    18:00 +13°C° 0 mm 1 m/s 745 mmHg 59%
    19:00 +12°C° 0 mm 1 m/s 745 mmHg 64%
    20:00 +11°C° 0 mm 1 m/s 745 mmHg 65%
    21:00 +11°C° 0 mm 1 m/s 745 mmHg 65%
    22:00 +10°C° 0 mm 1 m/s 745 mmHg 65%
    23:00 +9°C° 0 mm 2 m/s 744 mmHg 67%
    Voir plus